Weather History for Racine, WI

Change the Weather History Date:

Saturday, February 1, 2014

  Actual Average Record
Temperature  
Mean Temperature 22 °F -  
Max Temperature 28 °F 32 °F 61 °F (1989)
Min Temperature 15 °F 16 °F -13 °F (1971)
Degree Days  
Heating Degree Days 44    
Moisture  
Dew Point 18 °F    
Average Humidity 86    
Maximum Humidity 92    
Minimum Humidity 70    
Precipitation  
Precipitation 0.00 in - - ()
Sea Level Pressure  
Sea Level Pressure 29.99 in    
Wind  
Wind Speed 6 mph (North)    
Max Wind Speed 16 mph    
Max Gust Speed -    
Visibility 3 miles    
Events Fog , Snow    
Averages and records for this station are not official NWS values.
T = Trace of Precipitation, MM = Missing Value Source: NWS Daily Summary

Daily Weather History Graph

Daily Weather History Graph

Search for Another Location

Airport:

Trip Planner

Search our weather history database for the weather conditions in past years. The results will help you decide how hot, cold, wet, or windy it might be!

Date:

Astronomy

Feb. 01, 2014 Rise Set
Actual Time 7:05 AM CST 5:04 PM CST
Civil Twilight 6:35 AM CST 5:34 PM CST
Nautical Twilight 6:01 AM CST 6:08 PM CST
Astronomical Twilight 5:28 AM CST 6:41 PM CST
Moon 7:51 AM CST (2/1) 7:44 PM CST (2/1)
Length of Visible Light 10h 58m
Length of Day
9h 58m
Waxing Crescent, 5% of the Moon is Illuminated
Feb 1
Waxing Crescent
Feb 6
First Quarter
Feb 14
Full
Feb 22
Last Quarter
Mar 1
New

Hourly Weather History & Observations

Time (CST) Temp. Windchill Dew Point Humidity Pressure Visibility Wind Dir Wind Speed Gust Speed Precip Events Conditions
12:53 AM 15.1 °F - 7.0 °F 70% 30.13 in 10.0 mi Calm Calm - N/A   Overcast
1:35 AM 15.1 °F - 8.1 °F 74% 30.07 in 2.0 mi Calm Calm - 0.00 in Snow Light Snow
1:42 AM 15.1 °F 9.4 °F 9.0 °F 77% 30.06 in 1.8 mi NNW 3.5 mph - 0.00 in Snow Light Snow
1:53 AM 15.1 °F 9.4 °F 9.0 °F 77% 30.10 in 2.0 mi NW 3.5 mph - 0.00 in Snow Light Snow
2:01 AM 15.1 °F 9.4 °F 10.0 °F 80% 30.05 in 2.0 mi NNW 3.5 mph - 0.00 in Snow Light Snow
2:13 AM 15.1 °F 9.4 °F 10.0 °F 80% 30.06 in 2.5 mi NNW 3.5 mph - 0.00 in Snow Light Snow
2:27 AM 15.1 °F 7.7 °F 10.9 °F 84% 30.06 in 3.0 mi NNW 4.6 mph - 0.00 in Snow Light Snow
2:50 AM 15.8 °F 10.2 °F 12.2 °F 86% 30.05 in 2.0 mi NW 3.5 mph - 0.00 in Snow Light Snow
2:53 AM 16.0 °F 10.4 °F 12.0 °F 84% 30.08 in 2.5 mi NNW 3.5 mph - 0.00 in Snow Light Snow
3:04 AM 16.0 °F 10.4 °F 12.0 °F 84% 30.06 in 3.0 mi WNW 3.5 mph - 0.00 in Snow Light Snow
3:12 AM 16.0 °F 8.8 °F 12.0 °F 84% 30.05 in 2.0 mi NW 4.6 mph - 0.00 in Snow Light Snow
3:30 AM 17.1 °F 8.7 °F 12.9 °F 84% 30.04 in 1.5 mi NNW 5.8 mph - 0.00 in Snow Light Snow
3:43 AM 17.1 °F 11.7 °F 12.9 °F 84% 30.03 in 3.0 mi NNW 3.5 mph - 0.00 in Snow Light Snow
3:53 AM 17.1 °F 11.7 °F 12.9 °F 84% 30.06 in 2.5 mi North 3.5 mph - 0.00 in Snow Light Snow
4:38 AM 19.0 °F 8.2 °F 16.0 °F 88% 30.02 in 1.5 mi North 9.2 mph - 0.00 in Snow Light Snow
4:53 AM 19.9 °F 9.3 °F 17.1 °F 89% 30.06 in 1.2 mi North 9.2 mph - 0.00 in Snow Light Snow
5:10 AM 19.9 °F 9.3 °F 17.1 °F 89% 30.03 in 0.8 mi North 9.2 mph - 0.00 in Snow Light Snow
5:44 AM 19.9 °F 7.9 °F 17.1 °F 89% 30.00 in 0.8 mi North 11.5 mph - 0.00 in Snow Light Snow
5:53 AM 19.9 °F 9.3 °F 17.1 °F 89% 30.03 in 0.8 mi NNE 9.2 mph - 0.00 in Snow Light Snow
6:06 AM 19.9 °F 8.6 °F 17.1 °F 89% 29.99 in 1.0 mi North 10.4 mph - 0.00 in Snow Light Snow
6:53 AM 21.0 °F 11.4 °F 19.0 °F 92% 30.04 in 1.0 mi North 8.1 mph - 0.00 in Snow Light Snow
7:09 AM 23.0 °F 12.4 °F 21.0 °F 92% 30.00 in 0.8 mi NNE 10.4 mph - 0.00 in Snow Light Snow
7:24 AM 24.1 °F 13.1 °F 21.9 °F 91% 29.98 in 0.5 mi NE 11.5 mph - 0.00 in Fog , Snow Light Snow
7:49 AM 24.8 °F 14.6 °F 21.2 °F 86% 29.99 in 0.2 mi NNE 10.4 mph - 0.00 in Fog , Snow Snow
7:53 AM 25.0 °F 14.2 °F 21.9 °F 88% 30.01 in 0.2 mi NNE 11.5 mph - 0.00 in Fog , Snow Snow
8:06 AM 21.9 °F 11.0 °F 19.9 °F 92% 29.99 in 0.5 mi North 10.4 mph - 0.00 in Fog , Snow Light Snow
8:53 AM 21.0 °F 8.6 °F 19.0 °F 92% 30.01 in 0.8 mi North 12.7 mph - 0.00 in Snow Light Snow
9:34 AM 23.0 °F 12.4 °F 19.9 °F 88% 29.93 in 1.0 mi NNE 10.4 mph - 0.00 in Snow Light Snow
9:41 AM 23.0 °F 13.9 °F 21.0 °F 92% 29.94 in 0.8 mi NNE 8.1 mph - 0.00 in Snow Light Snow
9:50 AM 24.8 °F 16.1 °F 21.2 °F 86% 29.94 in 1.8 mi NNE 8.1 mph - 0.00 in Snow Light Snow
9:53 AM 26.1 °F 16.2 °F 23.0 °F 88% 29.98 in 2.0 mi NNE 10.4 mph - 0.00 in Snow Light Snow
10:03 AM 27.0 °F 17.3 °F 24.1 °F 89% 29.95 in 4.0 mi NNE 10.4 mph - 0.00 in Snow Light Snow
10:18 AM 27.0 °F 17.3 °F 24.1 °F 89% 29.93 in 2.0 mi NE 10.4 mph - 0.00 in Snow Light Snow
10:49 AM 28.4 °F 18.5 °F 24.8 °F 86% 29.91 in 2.0 mi NE 11.5 mph - 0.00 in Snow Light Snow
10:53 AM 28.0 °F 18.1 °F 24.1 °F 85% 29.95 in 2.0 mi NE 11.5 mph - 0.00 in Snow Light Snow
11:03 AM 28.0 °F 17.5 °F 24.1 °F 85% 29.91 in 3.0 mi NE 12.7 mph - 0.00 in Snow Light Snow
11:21 AM 28.0 °F 17.5 °F 24.1 °F 85% 29.92 in 4.0 mi NE 12.7 mph - 0.00 in Snow Light Snow
11:28 AM 28.0 °F 18.1 °F 23.0 °F 81% 29.92 in 4.0 mi NE 11.5 mph - 0.00 in Snow Light Snow
11:42 AM 28.0 °F 20.0 °F 24.1 °F 85% 29.92 in 5.0 mi NE 8.1 mph - 0.00 in Snow Light Snow
11:53 AM 27.0 °F 18.0 °F 23.0 °F 85% 29.95 in 4.0 mi NE 9.2 mph - 0.00 in Snow Light Snow
12:37 PM 28.0 °F 18.6 °F 24.1 °F 85% 29.89 in 2.5 mi NNE 10.4 mph - 0.00 in Snow Light Snow
12:44 PM 28.0 °F 18.1 °F 24.1 °F 85% 29.90 in 5.0 mi NNE 11.5 mph - 0.00 in   Overcast
12:53 PM 28.0 °F 18.1 °F 24.1 °F 85% 29.92 in 7.0 mi NNE 11.5 mph - 0.00 in   Overcast
1:25 PM 24.1 °F 11.5 °F 19.9 °F 84% 29.89 in 6.0 mi North 15.0 mph - N/A   Overcast
1:53 PM 21.9 °F 8.2 °F 19.0 °F 89% 29.93 in 1.8 mi North 16.1 mph - 0.00 in Snow Light Snow
2:23 PM 21.9 °F 9.8 °F 19.0 °F 89% 29.90 in 2.0 mi North 12.7 mph - 0.00 in Snow Light Snow
2:27 PM 21.9 °F 9.2 °F 19.0 °F 89% 29.90 in 1.8 mi North 13.8 mph - 0.00 in Snow Light Snow
2:50 PM 23.0 °F 11.7 °F 19.4 °F 86% 29.91 in 1.8 mi North 11.5 mph - 0.00 in Snow Light Snow
2:53 PM 23.0 °F 11.7 °F 19.0 °F 85% 29.95 in 2.0 mi North 11.5 mph - 0.00 in Snow Light Snow
3:04 PM 21.9 °F 10.4 °F 19.0 °F 89% 29.91 in 1.8 mi North 11.5 mph - 0.00 in Snow Light Snow
3:47 PM 23.0 °F 12.4 °F 19.4 °F 86% 29.93 in 2.5 mi North 10.4 mph - 0.00 in Snow Light Snow
3:53 PM 23.0 °F 13.1 °F 19.9 °F 88% 29.96 in 2.5 mi North 9.2 mph - 0.00 in Snow Light Snow
4:01 PM 23.0 °F 13.1 °F 19.9 °F 88% 29.93 in 1.8 mi North 9.2 mph - 0.00 in Snow Light Snow
4:19 PM 23.0 °F 14.7 °F 19.9 °F 88% 29.94 in 2.0 mi NNW 6.9 mph - 0.00 in Snow Light Snow
4:34 PM 23.0 °F 15.8 °F 19.9 °F 88% 29.94 in 1.8 mi NNW 5.8 mph - 0.00 in Snow Light Snow
4:51 PM 23.0 °F 14.7 °F 19.4 °F 86% 29.95 in 2.5 mi NNW 6.9 mph - 0.00 in Snow Light Snow
4:53 PM 23.0 °F 14.7 °F 19.9 °F 88% 29.98 in 2.5 mi NNW 6.9 mph - 0.00 in Snow Light Snow
4:55 PM 23.0 °F 14.7 °F 19.9 °F 88% 29.95 in 3.0 mi NNW 6.9 mph - 0.00 in Snow Light Snow
5:02 PM 23.0 °F 17.0 °F 19.9 °F 88% 29.96 in 2.5 mi NW 4.6 mph - 0.00 in Snow Light Snow
5:19 PM 23.0 °F 15.8 °F 19.9 °F 88% 29.96 in 4.0 mi NW 5.8 mph - 0.00 in   Overcast
5:41 PM 21.9 °F 14.5 °F 19.0 °F 89% 29.97 in 6.0 mi NNW 5.8 mph - 0.00 in   Mostly Cloudy
5:53 PM 21.9 °F 13.4 °F 19.0 °F 89% 30.00 in 7.0 mi NNW 6.9 mph - 0.00 in   Mostly Cloudy
6:39 PM 21.0 °F - 18.0 °F 88% 29.99 in 5.0 mi Calm Calm - N/A   Scattered Clouds
6:53 PM 21.0 °F 16.2 °F 18.0 °F 88% 30.04 in 5.0 mi WNW 3.5 mph - N/A   Partly Cloudy
7:53 PM 19.0 °F 10.0 °F 15.1 °F 85% 30.06 in 6.0 mi WNW 6.9 mph - N/A   Clear
8:53 PM 17.1 °F 8.7 °F 12.9 °F 84% 30.09 in 6.0 mi West 5.8 mph - N/A   Clear
9:53 PM 18.0 °F 9.8 °F 12.9 °F 81% 30.09 in 8.0 mi WNW 5.8 mph - N/A   Overcast
10:53 PM 18.0 °F 11.1 °F 12.0 °F 78% 30.10 in 10.0 mi WNW 4.6 mph - N/A   Overcast
11:53 PM 18.0 °F 7.7 °F 12.0 °F 78% 30.12 in 10.0 mi WNW 8.1 mph - N/A   Overcast